AirNav   Pilot Hours Calculator
 
 252 users online  

KAIV George Downer Airport
Aliceville, Alabama, USA

GOING TO ALICEVILLE?


FAA INFORMATION EFFECTIVE 25 FEBRUARY 2021

Location

FAA Identifier: AIV
Lat/Long: 33-06-24.2800N 088-11-49.8300W
33-06.404667N 088-11.830500W
33.1067444,-88.1971750
(estimated)
Elevation: 150 ft. / 45.7 m (surveyed)
Variation: 02W (2015)
From city: 2 miles SW of ALICEVILLE, AL
Time zone: UTC -6 (UTC -5 during Daylight Saving Time)
Zip code: 35442

Airport Operations

Airport use: Open to the public
Activation date: 10/1961
Control tower: no
ARTCC: MEMPHIS CENTER
FSS: ANNISTON FLIGHT SERVICE STATION
NOTAMs facility: ANB (NOTAM-D service available)
Attendance: UNATNDD
Wind indicator: lighted
Segmented circle: no
Lights: ACTVT MIRL & REILS RY 06/24 - CTAF.
Beacon: white-green (lighted land airport)
Operates sunset to sunrise.

Airport Communications

CTAF/UNICOM: 122.8
MEMPHIS ARTCC APPROACH: 135.6
MEMPHIS ARTCC DEPARTURE: 135.6
  • APCH/DEP SVC PRVDD BY MEMPHIS ARTCC ON FREQS 127.1/269.4 (COLUMBUS RCAG) WHEN COLUMBUS APCH CTL CLSD.

Nearby radio navigation aids

VOR radial/distance  VOR name  Freq  Var
IGBr141/27.7BIGBEE VORTAC116.2004E
CBMr159/34.3CALEDONIA VORTAC115.2000E
LDKr252/34.4CRIMSON VORTAC117.8003E

Airport Services

Fuel available: 100LL
Parking: tiedowns
Airframe service: NONE
Powerplant service: NONE
Bottled oxygen: NONE
Bulk oxygen: NONE

Runway Information

Runway 6/24

Dimensions: 5001 x 80 ft. / 1524 x 24 m
Surface: asphalt, in good condition
Runway edge lights: medium intensity
RUNWAY 6  RUNWAY 24
Latitude: 33-06.208833N33-06.600500N
Longitude: 088-12.261667W088-11.399333W
Elevation: 142.8 ft.149.8 ft.
Traffic pattern: leftleft
Runway heading: 064 magnetic, 062 true244 magnetic, 242 true
Markings: nonprecision, in good conditionnonprecision, in good condition
Runway end identifier lights: yesyes
Touchdown point: yes, no lightsyes, no lights

Airport Ownership and Management from official FAA records

Ownership: Publicly-owned
Owner: CITY OF ALICEVILLE
215 FIRST ST NE
ALICEVILLE, AL 35442
Phone 205-373-6611
ALTERNATE PHONE NUMBER 205-315-1057.
Manager: CITY OF ALICEVILLE
11135 HWY 17
ALICEVILLE, AL 35442
Phone 205-373-0446

Airport Operational Statistics

Aircraft based on the field: 3
Single engine airplanes: 3
    
Aircraft operations: avg 103/week *
100% transient general aviation
* for 12-month period ending 01 October 2019

Additional Remarks

TWY LGTS FOR TWY TURNOFF ONLY.
FOR CD CTC COLUMBUS APCH AT 662-434-3044.

Instrument Procedures

NOTE: All procedures below are presented as PDF files. If you need a reader for these files, you should download the free Adobe Reader.

NOT FOR NAVIGATION. Please procure official charts for flight.
FAA instrument procedures published for use from 25 February 2021 at 0901Z to 25 March 2021 at 0900Z.

 
IAPs - Instrument Approach Procedures
RNAV (GPS) RWY 06   download (215KB)
RNAV (GPS) RWY 24   download (210KB)
NOTE: Special Take-Off Minimums/Departure Procedures apply   download (250KB)

Other nearby airports with instrument procedures:

3M8 - North Pickens Airport (19 nm NE)
KUBS - Columbus-Lowndes County Airport (23 nm NW)
KGTR - Golden Triangle Regional Airport (28 nm NW)
KTCL - Tuscaloosa National Airport (30 nm E)
M51 - Oktibbeha Airport (34 nm NW)
 
Loc | Ops | Rwys | IFR | FBO | Links
Com | Nav | Svcs | Stats | Notes
Area around KAIV (George Downer Airport)
 
Road maps at: MapQuest Bing Google
 
Aerial photo
WARNING: Photo may not be current or correct
Aerial photo of KAIV (George Downer Airport)
Photo by David White
Photo taken 07-Nov-2019
looking southwest.

Do you have a better or more recent aerial photo of George Downer Airport that you would like to share? If so, please send us your photo.

 
Sectional chart

 
Airport distance calculator
Flying to George Downer Airport? Find the distance to fly.

From to KAIV

Sunrise and sunset
Times for 03-Mar-2021
 Local
(UTC-6)
 Zulu
(UTC)
Morning civil twilight05:5511:55
Sunrise06:1912:19
Sunset17:5023:50
Evening civil twilight18:1500:15

Current date and time
Zulu (UTC)  03-Mar-2021 09:43:45
Local (UTC-6)  03-Mar-2021 03:43:45
 
METAR
KGTR 
28nm NW 
030856Z AUTO 31005KT 10SM CLR 03/03 A3013 RMK AO2 SLP210 T00280028 50002
KTCL 
30nm E 
030853Z AUTO 35005KT 10SM OVC038 06/04 A3009 RMK AO2 SLP190 T00610044 56006
KCBM 
34nm N 
030856Z AUTO 32005KT 10SM CLR 04/03 A3011 RMK AO2 SLP200 T00350025 50001 $
KNJW 
37nm SW 
030857Z AUTO 34007KT 10SM CLR 03/02 A3006 RMK AO2 SLP983 T00280017 58002
KSTF 
38nm NW 
030855Z AUTO 33003KT 10SM CLR 02/01 A3014 RMK AO2
KNMM 
39nm SW 
030856Z AUTO 35003KT 10SM OVC031 03/02 A3010 RMK AO2 SLP204 T00330022 58006
KDYA 
40nm S 
030855Z AUTO 34004KT 10SM BKN008 BKN012 OVC023 06/05 A3009 RMK AO2 T00560047
KM40 
48nm N 
030855Z AUTO 36004KT 10SM CLR 03/03 A3013 RMK AO2
TAF
KGTR 
28nm NW 
030558Z 0306/0406 33004KT P6SM SCT045 SCT070 FM030800 33003KT 4SM BR SCT007 FM031400 33005KT P6SM SKC
KTCL 
30nm E 
021720Z 0218/0318 05006KT 6SM -RA BR OVC070 FM022100 01005KT 6SM -RA BR OVC026 FM030000 01007KT 5SM -RA BR OVC019 FM030600 36006KT P6SM BKN009 FM031200 35006KT P6SM SCT011
KCBM 
34nm N 
022025Z 0220/0323 02010G15KT 8000 -RAPL BKN050 630302 620805 QNH3015INS BECMG 0221/0222 01012KT 8000 -RAPL BKN020 620203 620805 QNH3014INS BECMG 0222/0223 01012KT 6000 RA BKN010 620609 QNH3013INS BECMG 0302/0303 36006KT 9999 NSW BKN007 OVC013 QNH3009INS BECMG 0309/0310 34008KT 9999 BKN020 QNH3009INS BECMG 0313/0314 35008KT 9999 SCT045 QNH3011INS TX13/0317Z TN05/0312Z
NOTAMs
Click for the latest NOTAMs
NOTAMs are issued by the DoD/FAA and will open in a separate window not controlled by AirNav.

 

 
 

FBO, Fuel Providers, and Aircraft Ground Support

  
 Business Name 
 
 Contact 
 
 Services / Description 
 
Fuel Prices
 
Comments
  
City of Aliceville 205-373-6611
no information available

If you are affiliated with City of Aliceville and would like to show here your services, contact info, web link, logo, and more, click here
100LL
SS $3.57 
 Updated 07-Jan-2021
 
   write
SS=Self service
Update Fuel Prices
 

Would you like to see your business listed on this page?

 If your business provides an interesting product or service to pilots, flight crews, aircraft, or users of the George Downer Airport, you should consider listing it here.  To start the listing process, click on the button below
 
Add a business
 

Other Pages about George Downer Airport

Update a link
 
Copyright © AirNav, LLC. All rights reserved. Privacy Policy  Contact